Overview Statistics Trail Chart Weather Telemetry Raw packets
 

This is the latest recevied weather packets stored in our database for station/object KO4ZGL-13. If no packets are shown the sender has not sent any weather packets the latest 10 day(s).

<< 96 97 98 99 100 101 102 >>
Time Temp. Humidity Pressure Rain* Wind** Luminosity Snow
1787923416 23.89° C 99% 1017.7 hPa 0 mm - 236 W/m² -
1787923113 23.89° C 99% 1017.8 hPa 0 mm - 156 W/m² -
1787922806 23.89° C 99% 1017.8 hPa 0 mm - 151 W/m² -
1787922500 23.89° C 99% 1017.6 hPa 0 mm - 118 W/m² -
1787922199 23.33° C 99% 1017.6 hPa 0 mm - 101 W/m² -
1787921897 23.33° C 99% 1017.5 hPa 0 mm - 88 W/m² -
1787921592 23.89° C 99% 1017.5 hPa 0 mm - 91 W/m² -
1787921291 23.33° C 99% 1017.4 hPa 0 mm - 95 W/m² -
1787920987 23.33° C 99% 1017.4 hPa 0 mm - 94 W/m² -
1787920682 23.33° C 99% 1017.2 hPa 0 mm - 90 W/m² -
1787920381 23.33° C 99% 1017.5 hPa 0 mm - 89 W/m² -
1787920084 22.78° C 99% 1017.5 hPa 0 mm - 87 W/m² -
1787919773 22.78° C 99% 1017.5 hPa 0 mm - 88 W/m² -
1787919473 22.78° C 99% 1017.4 hPa 0 mm - 91 W/m² -
1787919169 22.78° C 99% 1017.5 hPa 0 mm - 89 W/m² -
1787918868 22.78° C 99% 1017.5 hPa 0 mm - 82 W/m² -
1787918564 22.22° C 99% 1017.3 hPa 0 mm - 71 W/m² -
1787918261 22.22° C 99% 1017.6 hPa 0 mm - 63 W/m² -
1787917959 22.22° C 99% 1017.4 hPa 0 mm - 51 W/m² -
1787917651 22.22° C 99% 1017.5 hPa 0 mm - 43 W/m² -
1787917348 22.22° C 99% 1017.3 hPa 0 mm - 37 W/m² -
1787917048 21.67° C 99% 1017.2 hPa 0 mm - 30 W/m² -
1787916742 21.67° C 99% 1017.2 hPa 0 mm - 28 W/m² -
1787916437 21.67° C 99% 1017.4 hPa 0 mm - 23 W/m² -
1787916133 21.67° C 99% 1017.5 hPa 1.78 mm - 19 W/m² -

* Rain latest hour (hover to see other rain measurements)
** Current wind speed in m/s (hover to see current wind gust speed)